Vertical_Velocity
20 6 -0 3 2 2 4 -1 -1 3 2 -5 0 -1 -3 -0 0 -0 -0 -3 -0 -0 0 0 -0 1 -1 1 2 -1 0 -1 -1 -2 -1 -1 -2 -1 -1 -5 -4 -1 -4 -6
39 -4 -2 2 1 -0 -8 -2 -1 1 2 -5 -1 1 1 -1 -0 0 -0 -0 -1 -0 0 1 -1 -0 -4 3 -1 -1 -0 -0 -1 -6 -4 2 1 -1 -0 -1 -3 1 -5 -8
19 -13 1 0 4 3 1 -2 -5 1 1 3 -6 -1 1 0 0 0 -0 0 -2 -0 -1 -0 -0 -1 -2 -0 -0 -0 0 -0 -4 -7 -7 -3 -0 0 0 -3 -3 -1 -2 -2
19 -7 4 4 1 4 0 -1 -2 -1 -2 -2 -0 -2 -2 0 1 -0 0 1 -1 -0 -1 -0 -0 -1 -3 -2 2 -1 -0 -1 0 -1 -1 0 -1 -0 0 -1 -2 -4 1 -0
7 -9 2 7 -1 4 3 -10 -6 1 0 3 -2 -0 1 -2 2 -3 1 -4 0 -1 -2 -1 -0 0 -0 0 -6 -0 -2 -3 -1 -1 -0 -0 -0 0 0 0 1 1 -0 -2
11 -0 6 -0 -2 6 -2 1 1 1 2 1 -4 -3 -1 -1 -2 0 -2 -3 -1 0 -2 -0 -0 0 1 1 1 0 1 0 -2 -2 0 -1 -6 0 -1 -0 0 -4 -1 -6
20 -4 2 -0 4 3 0 -4 -2 -4 0 -2 -3 -1 -1 -1 -1 -4 1 -1 -3 -0 -1 -1 -0 1 -0 2 -2 0 0 -0 -0 -1 -3 -3 -5 -0 -0 -2 1 0 -0 0
4 1 1 2 5 -1 2 -2 -2 -3 0 -2 0 1 -1 2 3 -1 -2 -0 -0 -2 -1 -1 0 -2 -2 -2 -1 1 -0 0 -1 -3 -0 -3 -3 -1 -1 -2 1 1 -1 0
0 -7 1 2 3 -2 3 2 0 -1 -14 -4 -3 -2 -3 -2 0 -0 1 1 -0 -1 -1 -1 -0 -1 -2 -0 -1 1 1 0 -4 -1 -2 -0 -3 -1 1 -1 -3 0 -1 0
2 -4 1 2 4 0 2 -1 -2 0 -9 0 2 -2 -7 1 0 -2 1 -0 -0 0 0 0 -1 -0 0 -1 -0 -0 -0 -0 -2 -0 -0 -5 -1 -0 -1 -7 -8 0 -1 -1
2 -3 5 2 1 1 1 -2 0 1 -5 2 2 -1 -2 0 1 -3 1 -4 -4 -2 -2 -0 -1 -0 -1 -1 -1 -0 -2 -3 -1 -1 -1 -4 1 -2 -2 -6 -0 -0 -0 -1
-2 -2 2 -1 -1 -1 2 -1 2 1 -8 -0 5 -0 -0 0 1 -6 0 -1 0 -1 -3 -1 0 0 -1 -1 -0 -3 -3 -5 -4 -6 -6 1 3 1 2 2 2 1 0 -0
7 -2 3 -1 -1 -0 6 -1 -1 1 -11 -0 1 -0 0 2 -0 0 -7 -1 -0 -0 1 -1 -0 -1 -2 -0 -0 0 -1 1 -2 -3 -3 1 1 3 2 1 1 0 -0 2
4 4 -3 -5 -0 4 5 -3 3 3 -5 -9 1 2 0 1 -0 -2 -2 -5 -2 -3 -0 -1 -0 -1 -1 -0 -2 -1 -2 -2 0 1 0 1 3 -1 -0 -0 1 2 1 0
-5 4 -6 -0 2 3 -2 5 1 3 1 -7 1 2 1 -0 -0 0 1 -1 -3 -1 -3 -1 -2 1 -3 -1 -0 -0 -1 -1 -2 -4 -1 -1 -1 1 -0 -0 0 0 2 0
-3 -3 -2 1 2 1 -2 -7 2 0 0 -14 -1 3 1 0 -0 -1 -0 -0 -1 -1 -1 -1 1 0 -3 -2 0 -1 0 0 4 1 2 1 -1 -0 -3 1 0 -1 1 2
0 -2 2 -8 2 3 0 -1 1 2 1 -9 0 0 2 4 -1 -5 -4 -5 -1 -1 0 -1 -0 -0 -0 -0 -0 -0 -0 0 -0 -1 -2 -0 1 -0 -0 0 2 1 -0 2
-3 -1 -7 3 3 2 -1 1 1 3 -1 -2 -3 1 0 1 0 0 -1 -1 -1 -2 1 -0 -0 1 1 -0 -4 1 -1 0 0 -1 -2 -1 -1 0 -1 -0 2 2 0 1
-1 -2 -2 -5 -1 -0 -1 0 -1 1 -1 -5 -2 -5 -4 0 3 0 -0 -0 -1 -1 -1 -1 1 -1 -2 -7 -3 -2 -2 -1 -0 -0 -3 -1 -0 -2 -1 0 0 0 1 1
2 -10 -2 -1 0 3 -1 -3 -3 -2 -1 -1 -3 2 -1 0 -0 3 -3 1 0 -1 -6 1 1 -4 -6 -0 -2 1 -1 -0 -2 -2 -2 -2 -3 -3 -2 -1 1 -0 1 0
-6 -5 -5 3 -2 -1 1 -2 -3 -0 -2 0 2 -2 -3 -1 -2 -1 -0 -2 -0 -1 -7 -2 -1 -3 -3 0 0 -1 -0 -0 -2 -1 -2 -1 -2 -3 -2 0 0 1 0 1
-3 -15 -6 2 -1 -0 -5 -1 -2 -1 -3 2 -4 -1 -1 1 -1 -3 -0 -1 -2 -3 -1 3 -1 -7 -0 -1 -1 -0 -2 -0 -2 -3 -2 -2 -2 -3 -1 -1 1 0 1 -0
-11 -17 -4 -0 -0 1 0 -1 -2 1 -0 0 2 0 -4 1 0 0 -1 1 -3 -1 2 -4 -7 -0 1 0 -0 -2 -1 -1 -2 -2 -1 -1 -1 -2 -2 -0 0 1 0 2
-10 -4 2 -2 2 -1 -3 -2 -2 2 0 0 -2 -1 -4 0 -2 -1 -4 -4 0 2 1 -7 -3 -5 -2 1 -0 0 -2 -2 -2 -1 -2 -0 -2 -1 -1 -2 0 0 0 0
-4 -2 -2 0 -2 1 2 1 -2 2 4 -4 -1 -2 -4 1 -2 -1 -1 3 -0 -4 -7 -4 -1 -2 -2 -2 -2 -2 -3 -2 -1 -1 -2 -0 -0 0 -0 -1 -1 -1 -1 -0
-2 -1 -2 2 -3 1 0 2 -0 1 0 -0 -1 -1 -2 1 -3 -1 -2 -2 -5 -8 -2 -1 -1 -1 -1 -2 -2 -1 -1 -3 -3 -1 -1 -1 -1 -0 1 -2 -1 -1 -2 -2
-1 -1 1 1 0 -2 0 -4 -2 2 1 -1 -1 -3 -6 -2 -1 0 -1 -5 -5 -3 -2 -2 0 -1 -2 -2 -1 -2 -2 -2 -2 -0 -1 -3 -1 0 -1 -0 1 -1 -0 -1
Height
1408 1416 1427 1435 1441 1446 1453 1457 1462 1465 1467 1470 1472 1480 1473 1474 1476 1476 1478 1481 1481 1484 1482 1479 1482 1483 1479 1474 1473 1478 1476 1477 1487 1480 1472 1471 1472 1472 1472 1488 1477 1494 1501 1482
1404 1412 1423 1429 1435 1440 1445 1452 1459 1463 1465 1475 1478 1471 1472 1474 1476 1477 1478 1479 1481 1480 1480 1480 1478 1482 1476 1474 1474 1475 1476 1477 1483 1482 1473 1474 1474 1469 1467 1470 1481 1488 1502 1485
1397 1408 1418 1424 1431 1437 1443 1448 1459 1463 1463 1463 1465 1471 1473 1476 1477 1477 1478 1480 1481 1480 1481 1479 1480 1486 1477 1475 1474 1472 1475 1475 1482 1488 1473 1473 1479 1472 1469 1477 1493 1485 1492 1476
1394 1403 1413 1421 1427 1434 1440 1443 1449 1450 1464 1464 1464 1467 1470 1474 1477 1478 1478 1482 1482 1483 1481 1478 1481 1482 1480 1475 1475 1474 1474 1474 1475 1470 1468 1468 1470 1471 1471 1480 1473 1477 1478 1476
1390 1400 1409 1417 1423 1431 1436 1439 1443 1449 1454 1457 1463 1467 1471 1474 1476 1477 1479 1481 1482 1482 1484 1487 1482 1482 1483 1484 1479 1478 1476 1478 1472 1475 1465 1467 1468 1468 1471 1471 1471 1475 1480 1477
1390 1399 1407 1414 1419 1427 1432 1436 1439 1442 1456 1460 1464 1468 1470 1472 1473 1477 1477 1480 1482 1483 1484 1484 1484 1484 1484 1483 1484 1479 1476 1480 1479 1481 1468 1464 1478 1470 1471 1470 1470 1472 1478 1475
1389 1398 1406 1412 1418 1423 1429 1433 1437 1440 1457 1458 1461 1463 1466 1470 1472 1474 1477 1479 1481 1484 1484 1484 1483 1482 1482 1482 1481 1483 1483 1481 1481 1486 1475 1479 1471 1468 1467 1469 1471 1471 1472 1473
1387 1396 1405 1411 1417 1423 1429 1432 1435 1437 1453 1456 1460 1464 1467 1470 1473 1475 1476 1479 1481 1481 1482 1484 1483 1484 1483 1478 1479 1480 1482 1483 1483 1486 1487 1477 1471 1471 1470 1469 1476 1474 1475 1475
1385 1394 1403 1410 1416 1422 1428 1432 1434 1437 1444 1456 1457 1463 1467 1472 1475 1477 1477 1479 1479 1481 1481 1483 1481 1484 1477 1478 1477 1477 1480 1482 1485 1486 1487 1477 1475 1471 1470 1469 1478 1473 1474 1475
1385 1393 1402 1410 1416 1421 1427 1430 1434 1437 1444 1454 1457 1460 1465 1466 1470 1474 1476 1478 1480 1480 1481 1481 1492 1475 1479 1479 1477 1478 1482 1484 1486 1484 1483 1481 1473 1471 1471 1478 1484 1473 1473 1473
1383 1391 1400 1408 1414 1422 1426 1430 1433 1436 1442 1454 1457 1459 1461 1464 1466 1471 1475 1478 1480 1481 1481 1477 1479 1485 1483 1482 1477 1474 1479 1487 1485 1488 1486 1488 1473 1474 1475 1477 1474 1474 1474 1473
1382 1392 1400 1406 1415 1421 1426 1429 1433 1436 1439 1455 1459 1461 1463 1464 1466 1468 1472 1474 1475 1476 1481 1483 1482 1482 1485 1483 1474 1476 1480 1480 1480 1482 1481 1477 1476 1475 1476 1475 1475 1474 1474 1473
1381 1392 1400 1408 1416 1421 1425 1428 1432 1436 1444 1458 1461 1464 1466 1466 1467 1468 1470 1474 1475 1476 1477 1479 1482 1481 1483 1485 1482 1482 1476 1476 1479 1479 1481 1479 1477 1477 1476 1476 1475 1475 1475 1474
1383 1392 1398 1409 1416 1420 1425 1428 1432 1435 1442 1454 1467 1466 1467 1468 1468 1469 1469 1470 1474 1477 1478 1480 1480 1481 1482 1482 1484 1485 1480 1478 1479 1481 1480 1479 1477 1477 1477 1476 1475 1475 1475 1474
1383 1390 1398 1410 1417 1421 1425 1430 1433 1435 1439 1453 1466 1469 1470 1470 1471 1471 1472 1473 1475 1478 1480 1482 1484 1481 1483 1481 1482 1484 1479 1479 1480 1481 1479 1480 1479 1478 1477 1477 1476 1476 1475 1474
1381 1390 1400 1412 1418 1422 1427 1434 1436 1436 1437 1444 1464 1471 1473 1473 1473 1473 1474 1475 1477 1479 1480 1482 1482 1482 1483 1487 1480 1478 1478 1478 1478 1478 1478 1478 1477 1478 1479 1478 1476 1475 1475 1475
1382 1394 1404 1413 1419 1423 1425 1428 1430 1435 1438 1442 1464 1471 1474 1475 1475 1477 1479 1479 1480 1481 1482 1482 1482 1481 1481 1484 1484 1475 1476 1477 1478 1477 1477 1477 1477 1476 1476 1475 1474 1473 1474 1474
1386 1398 1408 1416 1421 1426 1426 1427 1431 1435 1438 1443 1458 1472 1474 1475 1476 1479 1480 1481 1482 1483 1483 1484 1482 1481 1480 1480 1472 1473 1474 1475 1475 1476 1477 1477 1476 1475 1473 1472 1472 1471 1471 1472
1390 1401 1411 1418 1423 1425 1427 1431 1434 1436 1440 1441 1451 1466 1474 1473 1474 1477 1480 1480 1482 1483 1484 1483 1483 1480 1477 1466 1467 1469 1471 1472 1472 1473 1473 1473 1473 1473 1473 1471 1471 1470 1470 1469
1393 1405 1413 1419 1423 1427 1431 1436 1437 1438 1438 1440 1447 1455 1463 1468 1470 1475 1478 1479 1479 1484 1481 1480 1480 1473 1463 1462 1464 1466 1468 1469 1469 1470 1470 1470 1470 1470 1470 1469 1468 1467 1467 1467
1393 1405 1413 1419 1424 1428 1431 1433 1437 1439 1440 1440 1446 1451 1457 1466 1468 1471 1474 1477 1477 1485 1482 1482 1479 1469 1456 1457 1461 1463 1464 1466 1466 1467 1467 1467 1467 1467 1467 1467 1466 1465 1465 1464
1392 1399 1413 1421 1424 1427 1430 1438 1438 1438 1436 1439 1443 1449 1454 1461 1465 1469 1474 1475 1477 1483 1477 1477 1473 1455 1452 1455 1457 1460 1462 1462 1464 1465 1464 1464 1463 1463 1463 1464 1464 1463 1463 1462
1394 1406 1415 1418 1425 1428 1430 1434 1436 1435 1430 1434 1439 1448 1452 1459 1463 1466 1469 1471 1481 1475 1475 1472 1460 1449 1451 1453 1456 1458 1459 1461 1462 1462 1462 1460 1460 1460 1461 1461 1461 1460 1460 1460
1395 1402 1413 1415 1418 1414 1412 1412 1414 1418 1421 1427 1435 1443 1448 1455 1460 1463 1470 1470 1470 1472 1478 1466 1447 1445 1448 1452 1454 1456 1457 1459 1459 1459 1459 1458 1458 1457 1457 1458 1459 1459 1459 1459
1393 1396 1401 1408 1405 1405 1407 1410 1413 1417 1421 1426 1435 1442 1447 1453 1458 1459 1464 1467 1464 1466 1462 1447 1440 1443 1447 1450 1452 1453 1455 1456 1457 1456 1456 1456 1455 1455 1455 1455 1456 1457 1457 1458
1393 1397 1403 1403 1404 1407 1409 1412 1414 1417 1423 1428 1432 1441 1449 1453 1454 1459 1459 1465 1465 1449 1441 1438 1439 1443 1446 1448 1450 1452 1453 1454 1454 1453 1453 1453 1454 1453 1453 1453 1454 1454 1455 1455
1394 1398 1398 1399 1400 1403 1407 1410 1415 1420 1422 1425 1429 1438 1444 1448 1457 1457 1453 1450 1440 1435 1435 1436 1439 1442 1444 1446 1449 1451 1451 1451 1451 1450 1449 1449 1450 1451 1451 1452 1452 1451 1451 1451